Location: Hamayl? Da??
(36.7028°N, 30.1716°E)
Time: 03:12:50
(UTC+00:00)

Vanguard 1 - Visible Passes

Search period start: 19 February 2026 00:00
Search period end: 01 March 2026 00:00
Orbit: 652 x 3819 km, 34.3° (Epoch: 17 February)

Date Brightness Start Highest point End Pass type
(mag) Time Alt. Az. Time Alt. Az. Time Alt. Az.
19 Feb 12.7 15:44:31 10° W 15:58:52 81° S 16:21:59 10° ESE visible
19 Feb 13.0 18:06:36 10° W 18:24:54 60° SSW 18:37:35 34° SE visible
19 Feb 13.6 20:32:28 10° W 20:49:41 29° SW 20:50:12 29° SW visible
20 Feb 12.7 16:03:58 10° W 16:18:42 78° SSW 16:41:54 10° ESE visible
20 Feb 13.1 18:26:20 10° W 18:44:30 52° SSW 18:56:19 33° SSE visible
20 Feb 13.8 20:53:54 10° W 21:08:48 22° SW 21:08:56 22° SW visible
21 Feb 12.8 16:23:25 10° W 16:38:29 73° SSW 17:01:39 10° ESE visible
21 Feb 13.3 18:46:13 10° W 19:03:59 45° SW 19:15:09 30° S visible
21 Feb 14.0 21:16:47 10° W 21:27:47 16° SW 21:27:47 16° SW visible
22 Feb 12.8 16:42:54 10° W 16:58:13 66° SSW 17:21:11 10° SE visible
22 Feb 13.5 19:06:22 10° W 19:23:25 37° SW 19:34:07 26° S visible
23 Feb 13.0 17:02:27 10° W 17:17:55 59° SSW 17:40:27 10° SE visible
23 Feb 13.7 19:26:53 10° W 19:42:48 30° SW 19:53:12 22° S visible
24 Feb 13.1 17:22:05 10° W 17:37:34 51° SSW 17:59:25 10° SE visible
24 Feb 13.9 19:48:06 10° W 20:02:08 23° SW 20:12:24 16° SSW visible
25 Feb 13.3 17:41:51 10° W 17:57:08 43° SSW 18:18:02 10° SSE visible
25 Feb 14.1 20:10:39 10° WSW 20:21:29 16° SW 20:31:44 11° SSW visible
26 Feb 13.5 18:01:54 10° W 18:16:41 36° SW 18:36:13 10° SSE visible
26 Feb 14.3 20:38:55 10° SW 20:40:55 10° SW 20:42:56 10° SW visible
27 Feb 12.9 15:59:00 10° W 16:11:42 57° SSW 16:32:37 10° SE visible
27 Feb 13.7 18:22:19 10° W 18:36:13 29° SW 18:53:50 10° SSE visible
28 Feb 13.1 16:18:34 10° W 16:31:19 49° SSW 16:51:38 10° SE visible
28 Feb 14.0 18:43:24 10° W 18:55:44 22° SW 19:10:40 10° S visible
